Notices

What's New in latest Release from April 7th, 2021:

- Updated Glossary, including Speed of Maximum Gust, and Total Hourly Precipitation

- Updated national and regional climate services offices contacts and prices information

- Addition of station inventory lists for 1981-2010, 1971-2000, and 1961-1990 Normals.

If you haven't already, please take our survey and provide feedback about our website: https://eccc.sondage-survey.ca/f/LanguageSelection.aspx?s=442ca660-fcf1-47c0-95a9-59707d6fd709

Hourly Data Report for October 18, 2019

SAINT JOHN A
NEW BRUNSWICK
Current Station Operator: NAVCAN

45°18'58.000" N
65°53'24.000" W
108.80 m
8104901
71609
YSJ

Download Data

Hourly Data (October 2019)
Hourly Data Report for October 18, 2019
TIME
LST
Temp Definition
°C
Dew Point Definition
°C
Rel Hum Definition
%
Precip. Amount Definition
mm

Wind Dir Definition
10's deg

Wind Spd Definition
km/h
Visibility Definition
km
Stn Press Definition
kPa
Hmdx Definition


Wind Chill Definition


Weather Definition


00:00 9.4 8.5 94   19 16 8.1 97.46     Rain Showers,Fog
01:00 9.6 8.9 96   18 17 4.8 97.46     Rain Showers,Fog
02:00 9.3 8.8 97   19 22 3.2 97.47     Rain Showers,Fog
03:00 9.2 8.9 98   21 9 4.8 97.47     Rain Showers,Fog
04:00 8.9 8.4 97   24 5 16.1 97.54     LegendNANA
05:00 8.9 8.4 97   25 14 16.1 97.70     Cloudy
06:00 8.6 8.1 96   24 9 12.9 97.82     LegendNANA
07:00 8.6 7.7 94   25 15 12.9 97.96     LegendNANA
08:00 8.6 7.8 95   26 16 12.9 98.08     Cloudy
09:00 9.1 7.1 88   28 21 24.1 98.15     LegendNANA
10:00 8.5 6.6 88   29 15 24.1 98.21     LegendNANA
11:00 7.9 5.7 86   27 15 24.1 98.30     Cloudy
12:00 7.8 4.2 78   26 19 24.1 98.38     LegendNANA
13:00 8.2 3.4 72   28 22 24.1 98.45     LegendNANA
14:00 8.0 3.9 75   28 16 24.1 98.53     Cloudy
15:00
16:00 8.8 4.2 73   30 23 24.1 98.61     LegendNANA
17:00 7.8 4.2 78   29 18 24.1 98.73     Mostly Cloudy
18:00 7.7 4.7 81   29 14 24.1 98.78     LegendNANA
19:00 7.2 4.9 85   28 10 19.3 98.86     LegendNANA
20:00 7.5 5.1 84   28 12 19.3 98.92     Mostly Cloudy
21:00 7.6 5.1 84   28 11 19.3 98.98     LegendNANA
22:00 7.5 4.8 83   28 16 24.1 99.04     LegendNANA
23:00 7.4 4.5 82   29 13 24.1 99.07     Cloudy

Notes on Data Quality.

Legend

  • E = Estimated
  • M = Missing
  • NA = Not Available*
  • [empty] = Indicates an unobserved value
Date modified: